Location: *
(50.0228°S, 177.2688°W)
Time: 09:24:13
(UTC+00:00)

ATLAS 3B R/B - Pass Details

Date: 07 April 2020
Orbit: 1024 x 1171 km, 63.8° (Epoch: 02 June)

Event Time Altitude Azimuth Distance (km) Brightness Sun altitude
Rises 09:05:24 0° 237° (WSW) 4,078 6.8 -34.9°
Reaches altitude 10° 09:08:35 10° 226° (SW) 3,108 5.9 -35.3°
Maximum altitude 09:15:03 31° 166° (SSE) 1,937 4.1 -36.1°
Enters shadow 09:15:48 30° 155° (SSE) 1,954 4.1 -36.2°
